QPF
0.00 0.00 0.01 0.00 0.00 0.01 0.00 0.01 0.04 0.07 0.08 0.06 0.05 0.06 0.07 0.06 0.05 0.05 0.05 0.06 0.07 0.06 0.06 0.06 0.04 0.04 0.03 0.03 0.03 0.05 0.04 0.04 0.04 0.03 0.03 0.03 0.04 0.05 0.05 0.05 0.05 0.05 0.04
0.00 0.00 0.00 0.00 0.01 0.01 0.00 0.01 0.02 0.05 0.09 0.08 0.06 0.07 0.08 0.08 0.10 0.11 0.09 0.09 0.09 0.09 0.07 0.05 0.04 0.03 0.03 0.03 0.03 0.05 0.04 0.04 0.04 0.03 0.03 0.03 0.02 0.03 0.03 0.04 0.05 0.07 0.08
0.01 0.00 0.01 0.01 0.01 0.01 0.00 0.00 0.01 0.01 0.03 0.04 0.03 0.04 0.06 0.08 0.10 0.12 0.11 0.08 0.07 0.07 0.07 0.05 0.04 0.04 0.03 0.03 0.04 0.05 0.05 0.04 0.04 0.03 0.04 0.03 0.03 0.03 0.02 0.02 0.05 0.08 0.09
0.01 0.00 0.00 0.00 0.00 0.00 0.00 0.00 0.00 0.00 0.00 0.01 0.01 0.01 0.02 0.04 0.05 0.06 0.06 0.04 0.03 0.03 0.03 0.03 0.04 0.04 0.04 0.03 0.04 0.05 0.05 0.04 0.04 0.03 0.03 0.03 0.04 0.04 0.03 0.02 0.04 0.05 0.05
0.00 0.00 0.00 0.00 0.00 0.00 0.00 0.01 0.01 0.01 0.01 0.01 0.01 0.01 0.02 0.03 0.03 0.03 0.02 0.01 0.01 0.01 0.02 0.02 0.03 0.03 0.03 0.02 0.02 0.03 0.03 0.03 0.03 0.03 0.03 0.04 0.05 0.05 0.05 0.03 0.04 0.04 0.05
0.00 0.00 0.00 0.00 0.00 0.00 0.00 0.01 0.01 0.01 0.01 0.02 0.02 0.02 0.02 0.03 0.03 0.01 0.01 0.01 0.01 0.01 0.02 0.02 0.02 0.03 0.03 0.02 0.02 0.03 0.03 0.04 0.03 0.03 0.03 0.04 0.06 0.06 0.06 0.03 0.03 0.03 0.03
0.00 0.00 0.01 0.00 0.00 0.00 0.00 0.02 0.02 0.02 0.02 0.03 0.03 0.02 0.03 0.03 0.02 0.01 0.01 0.01 0.01 0.01 0.02 0.03 0.02 0.03 0.03 0.04 0.04 0.05 0.06 0.06 0.06 0.05 0.05 0.05 0.07 0.06 0.04 0.05 0.04 0.03 0.03
0.00 0.01 0.01 0.01 0.01 0.02 0.03 0.04 0.04 0.04 0.03 0.05 0.05 0.04 0.04 0.04 0.02 0.02 0.02 0.02 0.02 0.02 0.03 0.03 0.03 0.02 0.04 0.04 0.06 0.07 0.09 0.10 0.09 0.07 0.06 0.07 0.07 0.05 0.04 0.05 0.06 0.06 0.05
0.01 0.01 0.01 0.01 0.01 0.02 0.03 0.04 0.07 0.08 0.08 0.08 0.07 0.04 0.03 0.04 0.02 0.02 0.02 0.02 0.03 0.03 0.02 0.03 0.04 0.04 0.05 0.05 0.07 0.09 0.12 0.13 0.12 0.08 0.07 0.06 0.05 0.06 0.05 0.05 0.07 0.07 0.05
0.00 0.00 0.00 0.00 0.00 0.01 0.02 0.02 0.03 0.04 0.04 0.04 0.02 0.01 0.01 0.01 0.01 0.02 0.02 0.02 0.02 0.03 0.03 0.03 0.05 0.06 0.07 0.09 0.09 0.11 0.13 0.12 0.10 0.06 0.06 0.05 0.04 0.05 0.05 0.06 0.06 0.06 0.06
0.00 0.00 0.00 0.00 0.01 0.02 0.02 0.03 0.03 0.03 0.04 0.03 0.02 0.01 0.01 0.01 0.01 0.02 0.02 0.03 0.02 0.02 0.03 0.03 0.05 0.06 0.08 0.09 0.09 0.09 0.10 0.08 0.05 0.04 0.04 0.04 0.03 0.03 0.03 0.04 0.05 0.05 0.05
0.00 0.00 0.00 0.00 0.01 0.02 0.03 0.03 0.04 0.04 0.04 0.03 0.02 0.02 0.02 0.02 0.03 0.02 0.03 0.03 0.03 0.03 0.04 0.05 0.06 0.08 0.09 0.08 0.07 0.08 0.08 0.05 0.05 0.06 0.06 0.05 0.04 0.03 0.03 0.04 0.03 0.04 0.04
0.00 0.00 0.00 0.00 0.01 0.04 0.05 0.07 0.07 0.06 0.06 0.05 0.04 0.04 0.03 0.04 0.05 0.05 0.05 0.04 0.04 0.05 0.05 0.06 0.06 0.08 0.08 0.07 0.07 0.07 0.08 0.08 0.08 0.07 0.06 0.06 0.04 0.04 0.03 0.03 0.02 0.02 0.03
0.01 0.01 0.01 0.01 0.02 0.04 0.05 0.07 0.07 0.05 0.04 0.04 0.04 0.05 0.05 0.04 0.04 0.05 0.07 0.07 0.06 0.04 0.04 0.05 0.06 0.08 0.10 0.09 0.10 0.08 0.07 0.06 0.05 0.04 0.04 0.05 0.05 0.04 0.04 0.04 0.03 0.03 0.03
0.01 0.01 0.02 0.02 0.02 0.03 0.03 0.03 0.03 0.02 0.03 0.04 0.05 0.06 0.08 0.08 0.09 0.09 0.08 0.10 0.10 0.07 0.07 0.07 0.07 0.09 0.10 0.10 0.09 0.07 0.06 0.06 0.05 0.05 0.05 0.04 0.04 0.05 0.06 0.06 0.06 0.06 0.05
0.02 0.02 0.02 0.02 0.02 0.02 0.02 0.02 0.01 0.02 0.02 0.03 0.04 0.06 0.08 0.10 0.12 0.14 0.17 0.19 0.15 0.10 0.08 0.09 0.09 0.10 0.08 0.08 0.08 0.08 0.06 0.05 0.05 0.06 0.05 0.04 0.04 0.04 0.04 0.04 0.05 0.05 0.04
0.02 0.02 0.02 0.02 0.01 0.01 0.01 0.02 0.02 0.02 0.02 0.02 0.03 0.04 0.06 0.07 0.07 0.10 0.13 0.13 0.09 0.06 0.05 0.07 0.07 0.07 0.07 0.08 0.11 0.09 0.06 0.06 0.05 0.06 0.07 0.06 0.05 0.05 0.03 0.04 0.05 0.05 0.05
0.01 0.01 0.02 0.01 0.02 0.01 0.02 0.02 0.02 0.03 0.03 0.03 0.04 0.05 0.06 0.07 0.07 0.07 0.07 0.08 0.05 0.04 0.04 0.05 0.05 0.06 0.06 0.07 0.08 0.08 0.07 0.08 0.08 0.08 0.07 0.05 0.05 0.05 0.04 0.04 0.04 0.04 0.04
0.01 0.01 0.02 0.02 0.03 0.05 0.05 0.03 0.03 0.03 0.04 0.04 0.06 0.07 0.07 0.08 0.08 0.09 0.10 0.09 0.07 0.06 0.06 0.07 0.07 0.06 0.08 0.09 0.08 0.08 0.07 0.07 0.06 0.06 0.05 0.04 0.03 0.03 0.03 0.02 0.01 0.01 0.01
0.01 0.01 0.01 0.01 0.02 0.06 0.10 0.08 0.06 0.05 0.08 0.08 0.07 0.06 0.06 0.06 0.05 0.06 0.09 0.08 0.07 0.07 0.06 0.06 0.06 0.07 0.07 0.08 0.08 0.08 0.06 0.06 0.06 0.06 0.05 0.04 0.03 0.02 0.02 0.01 0.01 0.01 0.01
0.01 0.01 0.01 0.02 0.02 0.02 0.03 0.05 0.08 0.08 0.11 0.15 0.12 0.06 0.04 0.03 0.03 0.05 0.06 0.05 0.05 0.05 0.05 0.05 0.05 0.05 0.07 0.08 0.10 0.12 0.12 0.12 0.08 0.06 0.05 0.04 0.03 0.02 0.01 0.00 0.00 0.00 0.00
0.02 0.02 0.01 0.01 0.02 0.03 0.02 0.02 0.02 0.04 0.04 0.04 0.04 0.03 0.02 0.02 0.03 0.03 0.04 0.04 0.04 0.04 0.03 0.03 0.04 0.05 0.08 0.11 0.12 0.11 0.09 0.08 0.06 0.04 0.03 0.02 0.01 0.01 0.00 0.00 0.00 0.00 0.00
0.02 0.02 0.01 0.02 0.02 0.03 0.02 0.01 0.01 0.01 0.02 0.02 0.01 0.02 0.02 0.02 0.02 0.02 0.02 0.03 0.03 0.04 0.04 0.04 0.06 0.08 0.09 0.11 0.10 0.06 0.04 0.03 0.03 0.02 0.01 0.01 0.01 0.01 0.01 0.01 0.00 0.01 0.01
0.02 0.02 0.02 0.02 0.02 0.02 0.01 0.01 0.01 0.00 0.01 0.02 0.02 0.02 0.02 0.01 0.01 0.01 0.02 0.03 0.03 0.04 0.05 0.06 0.06 0.07 0.07 0.06 0.03 0.03 0.02 0.02 0.02 0.01 0.02 0.01 0.01 0.01 0.01 0.01 0.01 0.01 0.01
0.02 0.02 0.02 0.02 0.02 0.01 0.01 0.01 0.01 0.01 0.01 0.01 0.01 0.01 0.02 0.02 0.02 0.02 0.03 0.03 0.03 0.04 0.04 0.05 0.05 0.05 0.04 0.04 0.03 0.02 0.02 0.02 0.02 0.02 0.01 0.01 0.01 0.01 0.00 0.00 0.00 0.01 0.00
0.02 0.02 0.02 0.02 0.02 0.02 0.02 0.01 0.01 0.01 0.01 0.01 0.01 0.01 0.01 0.02 0.02 0.03 0.03 0.04 0.05 0.05 0.05 0.06 0.05 0.05 0.05 0.04 0.04 0.03 0.03 0.02 0.02 0.01 0.01 0.01 0.01 0.01 0.01 0.01 0.00 0.00 0.00
MSLP
1013.87 1014.01 1014.13 1014.21 1014.25 1014.27 1014.31 1014.40 1014.58 1014.87 1015.25 1015.71 1016.19 1016.66 1017.06 1017.36 1017.55 1017.65 1017.69 1017.69 1017.71 1017.78 1017.91 1018.12 1018.39 1018.71 1019.05 1019.39 1019.72 1020.03 1020.32 1020.59 1020.85 1021.07 1021.27 1021.43 1021.53 1021.58 1021.58 1021.53 1021.46 1021.40 1021.38
1013.89 1014.10 1014.27 1014.37 1014.39 1014.37 1014.35 1014.38 1014.53 1014.81 1015.22 1015.72 1016.27 1016.79 1017.23 1017.55 1017.72 1017.78 1017.75 1017.70 1017.68 1017.72 1017.85 1018.07 1018.36 1018.69 1019.04 1019.37 1019.67 1019.95 1020.20 1020.43 1020.67 1020.91 1021.13 1021.33 1021.48 1021.57 1021.58 1021.52 1021.41 1021.28 1021.17
1013.68 1014.00 1014.26 1014.41 1014.46 1014.43 1014.37 1014.37 1014.49 1014.76 1015.18 1015.71 1016.30 1016.85 1017.32 1017.64 1017.80 1017.83 1017.77 1017.68 1017.63 1017.66 1017.79 1018.03 1018.34 1018.69 1019.03 1019.34 1019.61 1019.83 1020.03 1020.23 1020.45 1020.69 1020.95 1021.19 1021.40 1021.53 1021.57 1021.51 1021.36 1021.17 1020.97
1013.16 1013.60 1013.98 1014.23 1014.35 1014.35 1014.31 1014.30 1014.41 1014.67 1015.09 1015.64 1016.24 1016.82 1017.29 1017.61 1017.77 1017.78 1017.70 1017.60 1017.55 1017.59 1017.75 1018.01 1018.34 1018.69 1019.02 1019.30 1019.52 1019.69 1019.83 1019.99 1020.19 1020.43 1020.71 1021.01 1021.26 1021.44 1021.51 1021.46 1021.29 1021.03 1020.75
1012.33 1012.90 1013.42 1013.80 1014.01 1014.09 1014.09 1014.11 1014.23 1014.49 1014.91 1015.46 1016.06 1016.64 1017.13 1017.45 1017.60 1017.62 1017.55 1017.46 1017.42 1017.48 1017.66 1017.95 1018.29 1018.65 1018.96 1019.21 1019.39 1019.50 1019.60 1019.71 1019.88 1020.12 1020.42 1020.74 1021.04 1021.27 1021.37 1021.32 1021.14 1020.84 1020.49
1011.28 1011.96 1012.60 1013.11 1013.44 1013.61 1013.68 1013.75 1013.89 1014.17 1014.60 1015.15 1015.75 1016.33 1016.82 1017.15 1017.31 1017.34 1017.28 1017.22 1017.20 1017.29 1017.50 1017.80 1018.15 1018.51 1018.81 1019.03 1019.16 1019.23 1019.28 1019.35 1019.49 1019.72 1020.02 1020.36 1020.69 1020.95 1021.07 1021.04 1020.86 1020.54 1020.15
1010.13 1010.88 1011.62 1012.23 1012.67 1012.93 1013.09 1013.21 1013.39 1013.70 1014.14 1014.69 1015.30 1015.88 1016.37 1016.71 1016.89 1016.93 1016.90 1016.86 1016.87 1016.99 1017.21 1017.52 1017.87 1018.22 1018.50 1018.70 1018.80 1018.83 1018.84 1018.89 1019.00 1019.21 1019.50 1019.84 1020.18 1020.45 1020.60 1020.59 1020.41 1020.10 1019.70
1009.07 1009.83 1010.61 1011.29 1011.79 1012.13 1012.35 1012.53 1012.76 1013.09 1013.55 1014.11 1014.73 1015.32 1015.81 1016.17 1016.36 1016.43 1016.42 1016.40 1016.43 1016.55 1016.77 1017.08 1017.43 1017.76 1018.02 1018.20 1018.28 1018.30 1018.29 1018.31 1018.40 1018.58 1018.85 1019.18 1019.50 1019.78 1019.93 1019.94 1019.80 1019.51 1019.13
1008.24 1008.96 1009.72 1010.39 1010.91 1011.28 1011.54 1011.76 1012.03 1012.40 1012.88 1013.46 1014.08 1014.68 1015.19 1015.56 1015.77 1015.86 1015.87 1015.86 1015.89 1016.01 1016.22 1016.50 1016.83 1017.14 1017.39 1017.55 1017.63 1017.64 1017.63 1017.63 1017.71 1017.87 1018.10 1018.40 1018.70 1018.96 1019.11 1019.14 1019.03 1018.79 1018.46
1007.74 1008.36 1009.03 1009.64 1010.12 1010.47 1010.73 1010.97 1011.27 1011.66 1012.17 1012.77 1013.41 1014.02 1014.54 1014.92 1015.15 1015.26 1015.28 1015.27 1015.30 1015.40 1015.58 1015.83 1016.13 1016.41 1016.65 1016.82 1016.90 1016.92 1016.91 1016.92 1016.98 1017.12 1017.32 1017.57 1017.83 1018.06 1018.20 1018.24 1018.16 1017.97 1017.71
1007.58 1008.07 1008.60 1009.08 1009.46 1009.75 1009.98 1010.22 1010.52 1010.93 1011.46 1012.08 1012.73 1013.35 1013.89 1014.29 1014.53 1014.65 1014.68 1014.68 1014.70 1014.77 1014.93 1015.15 1015.41 1015.67 1015.90 1016.06 1016.16 1016.20 1016.22 1016.23 1016.29 1016.40 1016.56 1016.76 1016.97 1017.15 1017.27 1017.30 1017.25 1017.12 1016.92
1007.69 1008.01 1008.37 1008.69 1008.94 1009.14 1009.31 1009.52 1009.83 1010.25 1010.79 1011.41 1012.07 1012.71 1013.25 1013.66 1013.92 1014.06 1014.10 1014.11 1014.12 1014.19 1014.32 1014.52 1014.75 1014.99 1015.21 1015.38 1015.49 1015.55 1015.59 1015.62 1015.67 1015.76 1015.88 1016.02 1016.17 1016.30 1016.38 1016.40 1016.36 1016.27 1016.14
1007.92 1008.08 1008.26 1008.41 1008.52 1008.61 1008.72 1008.90 1009.19 1009.61 1010.15 1010.78 1011.44 1012.07 1012.61 1013.03 1013.31 1013.47 1013.54 1013.57 1013.61 1013.68 1013.80 1013.99 1014.20 1014.42 1014.63 1014.80 1014.92 1015.00 1015.05 1015.09 1015.14 1015.21 1015.29 1015.38 1015.47 1015.54 1015.57 1015.57 1015.53 1015.47 1015.38
1008.14 1008.15 1008.17 1008.16 1008.15 1008.14 1008.19 1008.34 1008.61 1009.02 1009.55 1010.17 1010.81 1011.42 1011.95 1012.37 1012.67 1012.87 1012.99 1013.06 1013.14 1013.24 1013.39 1013.57 1013.78 1013.99 1014.18 1014.34 1014.46 1014.54 1014.60 1014.64 1014.68 1014.72 1014.77 1014.82 1014.85 1014.87 1014.86 1014.83 1014.78 1014.73 1014.67
1008.21 1008.11 1008.00 1007.88 1007.77 1007.70 1007.71 1007.83 1008.10 1008.49 1009.00 1009.58 1010.18 1010.76 1011.27 1011.69 1012.01 1012.25 1012.43 1012.57 1012.72 1012.88 1013.07 1013.27 1013.48 1013.68 1013.85 1013.99 1014.08 1014.15 1014.19 1014.22 1014.24 1014.27 1014.29 1014.31 1014.30 1014.28 1014.24 1014.18 1014.12 1014.06 1014.01
1008.08 1007.91 1007.72 1007.53 1007.37 1007.27 1007.27 1007.39 1007.65 1008.02 1008.50 1009.03 1009.58 1010.10 1010.58 1010.99 1011.33 1011.61 1011.86 1012.10 1012.33 1012.57 1012.82 1013.06 1013.27 1013.46 1013.60 1013.69 1013.75 1013.77 1013.78 1013.78 1013.79 1013.80 1013.81 1013.80 1013.79 1013.74 1013.68 1013.60 1013.53 1013.46 1013.40
1007.74 1007.54 1007.32 1007.11 1006.95 1006.87 1006.89 1007.03 1007.29 1007.64 1008.07 1008.55 1009.02 1009.48 1009.91 1010.30 1010.65 1010.99 1011.31 1011.64 1011.98 1012.31 1012.62 1012.90 1013.13 1013.29 1013.39 1013.42 1013.41 1013.38 1013.34 1013.31 1013.29 1013.29 1013.30 1013.30 1013.28 1013.24 1013.18 1013.10 1013.01 1012.92 1012.84
1007.23 1007.03 1006.83 1006.66 1006.54 1006.52 1006.60 1006.78 1007.05 1007.39 1007.77 1008.18 1008.57 1008.95 1009.32 1009.68 1010.04 1010.42 1010.83 1011.25 1011.68 1012.10 1012.48 1012.79 1013.02 1013.15 1013.19 1013.16 1013.07 1012.97 1012.87 1012.79 1012.75 1012.75 1012.77 1012.79 1012.79 1012.78 1012.73 1012.65 1012.55 1012.45 1012.34
1006.61 1006.45 1006.31 1006.21 1006.19 1006.26 1006.41 1006.65 1006.95 1007.29 1007.63 1007.96 1008.28 1008.58 1008.88 1009.21 1009.57 1009.98 1010.45 1010.95 1011.46 1011.96 1012.39 1012.73 1012.94 1013.04 1013.02 1012.91 1012.74 1012.56 1012.40 1012.28 1012.23 1012.22 1012.26 1012.31 1012.35 1012.37 1012.34 1012.27 1012.17 1012.04 1011.90
1005.96 1005.86 1005.80 1005.81 1005.91 1006.09 1006.35 1006.66 1007.00 1007.34 1007.65 1007.93 1008.17 1008.40 1008.64 1008.93 1009.28 1009.71 1010.22 1010.78 1011.35 1011.89 1012.35 1012.70 1012.90 1012.95 1012.87 1012.68 1012.45 1012.20 1011.98 1011.83 1011.76 1011.76 1011.82 1011.90 1011.98 1012.02 1012.02 1011.96 1011.84 1011.69 1011.50
1005.30 1005.28 1005.32 1005.46 1005.68 1006.00 1006.37 1006.78 1007.17 1007.53 1007.83 1008.07 1008.26 1008.43 1008.63 1008.88 1009.21 1009.64 1010.16 1010.74 1011.34 1011.90 1012.37 1012.70 1012.87 1012.88 1012.75 1012.51 1012.21 1011.92 1011.67 1011.49 1011.41 1011.42 1011.49 1011.59 1011.69 1011.76 1011.76 1011.70 1011.56 1011.37 1011.14
1004.64 1004.71 1004.87 1005.13 1005.50 1005.95 1006.45 1006.95 1007.42 1007.82 1008.13 1008.36 1008.52 1008.66 1008.82 1009.04 1009.35 1009.76 1010.27 1010.84 1011.43 1011.97 1012.42 1012.72 1012.86 1012.83 1012.66 1012.38 1012.05 1011.73 1011.46 1011.28 1011.19 1011.20 1011.28 1011.39 1011.49 1011.55 1011.54 1011.45 1011.29 1011.05 1010.77
1003.97 1004.13 1004.41 1004.81 1005.32 1005.91 1006.53 1007.14 1007.70 1008.15 1008.50 1008.75 1008.91 1009.04 1009.18 1009.36 1009.64 1010.02 1010.49 1011.02 1011.56 1012.06 1012.46 1012.72 1012.82 1012.76 1012.56 1012.27 1011.94 1011.62 1011.35 1011.17 1011.09 1011.10 1011.16 1011.26 1011.34 1011.37 1011.32 1011.19 1010.98 1010.69 1010.36
1003.31 1003.56 1003.95 1004.48 1005.12 1005.84 1006.59 1007.31 1007.95 1008.48 1008.89 1009.17 1009.36 1009.50 1009.63 1009.79 1010.03 1010.36 1010.77 1011.22 1011.69 1012.11 1012.45 1012.66 1012.72 1012.64 1012.43 1012.15 1011.84 1011.54 1011.29 1011.13 1011.05 1011.05 1011.09 1011.14 1011.18 1011.15 1011.05 1010.86 1010.60 1010.26 1009.88
1002.68 1003.02 1003.52 1004.16 1004.92 1005.75 1006.61 1007.43 1008.16 1008.77 1009.25 1009.59 1009.82 1009.98 1010.11 1010.26 1010.45 1010.71 1011.04 1011.40 1011.77 1012.10 1012.36 1012.50 1012.52 1012.43 1012.23 1011.98 1011.70 1011.44 1011.23 1011.08 1011.00 1010.98 1010.99 1010.99 1010.95 1010.86 1010.69 1010.43 1010.11 1009.74 1009.33
1002.14 1002.56 1003.15 1003.90 1004.75 1005.68 1006.62 1007.52 1008.33 1009.02 1009.56 1009.95 1010.23 1010.42 1010.55 1010.68 1010.83 1011.02 1011.25 1011.51 1011.77 1011.99 1012.16 1012.24 1012.22 1012.12 1011.95 1011.73 1011.50 1011.28 1011.11 1010.98 1010.90 1010.84 1010.80 1010.73 1010.62 1010.45 1010.20 1009.89 1009.52 1009.12 1008.70
Thickness
5788 5787 5786 5784 5780 5778 5775 5773 5770 5768 5766 5763 5760 5757 5756 5756 5756 5756 5755 5754 5753 5752 5751 5750 5749 5747 5745 5744 5743 5741 5739 5738 5738 5735 5733 5735 5736 5736 5736 5735 5733 5732 5731
5787 5787 5786 5784 5781 5779 5776 5774 5772 5770 5768 5766 5764 5761 5759 5758 5757 5757 5756 5755 5754 5753 5753 5751 5750 5748 5746 5745 5743 5741 5738 5737 5737 5734 5729 5726 5727 5731 5734 5733 5732 5731 5730
5789 5788 5787 5785 5783 5780 5778 5777 5774 5772 5770 5768 5765 5763 5760 5758 5757 5756 5756 5756 5755 5754 5753 5752 5751 5749 5747 5745 5743 5742 5739 5736 5736 5736 5730 5724 5721 5724 5728 5730 5730 5729 5728
5795 5792 5790 5787 5786 5784 5782 5779 5776 5774 5771 5769 5765 5762 5758 5755 5756 5756 5756 5756 5756 5755 5754 5753 5751 5750 5748 5746 5744 5743 5741 5738 5735 5734 5733 5731 5729 5723 5721 5724 5727 5727 5726
5800 5797 5795 5793 5791 5788 5784 5781 5777 5775 5773 5770 5767 5763 5760 5759 5758 5758 5756 5756 5755 5755 5754 5753 5751 5750 5748 5746 5745 5743 5742 5740 5737 5734 5732 5730 5728 5726 5722 5718 5721 5722 5723
5805 5801 5799 5796 5793 5790 5786 5782 5778 5775 5774 5771 5768 5765 5762 5760 5758 5756 5755 5754 5754 5754 5753 5752 5751 5750 5748 5746 5745 5743 5742 5740 5738 5736 5734 5730 5727 5725 5723 5719 5717 5717 5719
5806 5802 5799 5796 5793 5790 5787 5784 5780 5776 5774 5771 5768 5766 5764 5762 5759 5758 5756 5754 5753 5753 5753 5752 5751 5749 5748 5746 5745 5743 5741 5739 5737 5735 5733 5731 5729 5728 5725 5721 5717 5716 5716
5808 5805 5803 5799 5796 5793 5789 5785 5780 5777 5774 5771 5769 5767 5765 5763 5761 5760 5758 5756 5754 5754 5753 5752 5751 5749 5748 5746 5744 5742 5740 5738 5735 5733 5731 5729 5728 5727 5725 5722 5718 5713 5711
5809 5808 5805 5802 5798 5794 5790 5786 5782 5778 5775 5772 5769 5767 5766 5764 5763 5761 5759 5757 5755 5754 5752 5751 5749 5748 5746 5744 5742 5740 5737 5735 5733 5731 5729 5727 5727 5726 5725 5723 5720 5714 5708
5808 5807 5805 5802 5800 5797 5793 5788 5784 5779 5776 5772 5769 5768 5766 5764 5763 5761 5758 5757 5755 5753 5751 5749 5748 5746 5744 5742 5740 5737 5735 5732 5730 5728 5726 5724 5724 5723 5723 5721 5718 5715 5710
5806 5806 5804 5802 5799 5796 5792 5788 5784 5779 5776 5772 5770 5768 5766 5764 5762 5759 5757 5756 5754 5752 5750 5748 5746 5744 5741 5740 5737 5734 5731 5729 5727 5725 5724 5722 5721 5719 5719 5717 5715 5712 5709
5805 5804 5802 5799 5796 5793 5790 5786 5782 5778 5774 5771 5769 5766 5765 5762 5760 5757 5756 5754 5752 5750 5748 5745 5743 5741 5738 5736 5733 5731 5729 5726 5724 5722 5721 5719 5718 5716 5714 5713 5710 5708 5705
5798 5798 5797 5795 5792 5790 5787 5784 5781 5777 5773 5769 5766 5763 5761 5758 5756 5755 5753 5752 5750 5748 5745 5741 5738 5736 5734 5732 5730 5728 5725 5723 5721 5719 5717 5716 5714 5711 5710 5708 5705 5703 5700
5793 5792 5790 5789 5789 5787 5784 5782 5779 5776 5772 5768 5764 5761 5758 5756 5754 5752 5751 5749 5746 5742 5740 5737 5735 5733 5730 5728 5727 5724 5722 5719 5717 5715 5713 5711 5709 5707 5705 5702 5699 5697 5693
5786 5786 5785 5784 5784 5783 5781 5778 5775 5774 5770 5764 5761 5758 5756 5753 5751 5749 5747 5744 5740 5737 5736 5734 5731 5728 5726 5724 5721 5719 5716 5713 5710 5708 5706 5705 5703 5701 5699 5697 5693 5690 5686
5781 5782 5781 5781 5780 5779 5776 5773 5770 5768 5765 5761 5757 5754 5752 5749 5746 5744 5741 5738 5735 5733 5731 5728 5725 5723 5721 5718 5715 5713 5710 5707 5704 5702 5700 5698 5696 5694 5691 5689 5687 5684 5680
5778 5777 5777 5776 5775 5774 5772 5768 5765 5763 5759 5756 5753 5750 5747 5744 5742 5740 5737 5734 5730 5727 5725 5722 5719 5717 5714 5712 5710 5707 5704 5701 5698 5696 5693 5691 5689 5686 5684 5681 5679 5676 5673
5773 5773 5772 5771 5770 5769 5766 5763 5760 5757 5753 5750 5747 5745 5742 5739 5737 5735 5732 5729 5725 5721 5718 5716 5713 5711 5708 5706 5705 5702 5699 5694 5691 5689 5686 5683 5680 5678 5676 5673 5670 5666 5664
5769 5768 5767 5765 5764 5762 5760 5757 5753 5750 5747 5743 5740 5738 5737 5734 5731 5729 5726 5723 5719 5715 5712 5709 5707 5704 5702 5700 5698 5696 5692 5686 5683 5681 5678 5675 5672 5670 5668 5665 5661 5658 5655
5762 5760 5759 5757 5755 5754 5752 5749 5744 5741 5738 5736 5734 5732 5730 5728 5725 5722 5719 5716 5713 5709 5706 5703 5700 5697 5695 5692 5691 5688 5684 5679 5675 5672 5669 5666 5664 5661 5659 5656 5653 5649 5646
5754 5753 5750 5748 5746 5746 5744 5740 5736 5731 5730 5729 5726 5725 5724 5722 5719 5716 5713 5710 5706 5702 5699 5695 5692 5690 5687 5685 5682 5679 5676 5671 5667 5663 5660 5657 5655 5653 5650 5647 5645 5641 5638
5745 5744 5742 5739 5738 5737 5736 5731 5727 5725 5724 5722 5719 5717 5716 5714 5712 5709 5706 5702 5699 5695 5691 5688 5684 5681 5678 5676 5673 5670 5666 5663 5659 5654 5651 5649 5647 5644 5641 5638 5635 5633 5630
5737 5736 5734 5730 5728 5727 5726 5722 5719 5718 5716 5714 5711 5708 5706 5704 5702 5700 5696 5693 5690 5688 5684 5680 5676 5672 5669 5666 5664 5660 5657 5653 5650 5646 5643 5641 5639 5636 5633 5630 5627 5624 5621
5729 5728 5725 5722 5719 5718 5717 5715 5712 5711 5708 5705 5701 5698 5696 5693 5691 5689 5687 5684 5681 5679 5676 5672 5668 5664 5661 5657 5654 5651 5648 5644 5641 5637 5635 5632 5630 5627 5624 5621 5617 5614 5610
5720 5719 5717 5714 5711 5709 5707 5706 5703 5702 5699 5695 5691 5688 5686 5684 5680 5678 5674 5673 5670 5669 5667 5664 5660 5657 5653 5649 5646 5643 5640 5636 5633 5629 5626 5623 5620 5617 5613 5610 5606 5603 5599
5711 5709 5707 5705 5703 5701 5698 5696 5693 5692 5689 5685 5682 5679 5676 5673 5671 5668 5664 5661 5660 5659 5657 5655 5652 5648 5645 5641 5638 5634 5632 5628 5625 5621 5617 5613 5610 5606 5603 5599 5596 5592 5588